Location: Austin
(30.3000°N, 97.7500°W)
Time: 22:37:18
(UTC-06:00)

EPKM - Pass Details

Date: 03 December 2025
Orbit: 296 x 16634 km, 25.7° (Epoch: 07 December)

Event Time Altitude Azimuth Distance (km) Brightness Sun altitude
Exits shadow 06:18:02 - 247° (WSW) 2,278 5.0 -11.6°
Reaches altitude 10° 06:18:51 10° 243° (WSW) 1,879 4.6 -11.4°
Maximum altitude 06:21:55 28° 181° (S) 701 3.1 -10.8°
Drops below altitude 10° 06:23:50 10° 115° (ESE) 1,154 5.6 -10.4°
Sets 06:25:33 0° 100° (E) 1,983 7.2 -10.0°
